STARLINK-5196, 55319

Orbit data source: Space-Track

STARLINK-5196, 55319 is a payload satellite owned by SpaceX/Seattle (US) in LEO that was launched on Thu, 19 Jan 2023 UTC via an FALCON 9 launch vehicle from the Air Force Western Test Range (AFWTR). Payload-class satellites include a variety of spacecraft equipped with specific instruments for various scientific and technological missions. These include communications satellites like Starlink; space stations such as the ISS; scientific satellites like the Hubble; Earth observation satellites from companies like Planet Labs, Umbra, and HawkEye 360; GPS; miniature CubeSats for education and research; and military/defense satellites.

Loading next visibility...
Identifier
55319, 2023-010BC
Orbit
LEO
Country
Flag of USUS
Related business
Manufacturer
SpaceX/Seattle
Mission
Operational Commercial Communications
Bus & Motor
STARLINK, Unknown motor
Mass
305 kg wet, ~290 kg dry
Launch date (UTC)
2023-01-19 (3 years ago)
Launch vehicle
FALCON 9
Launch site
Air Force Western Test Range (AFWTR)
Object type
Payload
Rocket body
Debris
Shape & HBR
Box + 1 Pan, 10.1 m
Radar Cross Section
13.562 m², Large (>1 m²)

Expand to show TLE details & history
Last TLE update: 2 days ago

TLE from 2 days ago
0 STARLINK-5196
1 55319U 23010BC  26171.23513088  .00000554  00000-0  54222-4 0  9999
2 55319  69.9995 105.8608 0003182 267.6698  92.4097 14.98332128190000
Epoch: 2026-06-20T05:38Z
TLE epoch observation values (Epoch: 2026-06-20T05:38:35.308Z)
Latitude
0.00003°
Longitude
112.76102°
Altitude
574.567 km
Speed
7.574 km/s
True Right ascension
07h 03m 26s
True Declination
0° 00' 00"
Sunlit
Object was in daylight at epoch
Visualization orbit readout
Latitude
Unknown
Longitude
Unknown
Altitude
Unknown
Speed
Unknown
Apparent Right ascension
Unknown
Apparent Declination
Unknown
Sunlit
N/A
Visualization observer readout
Local Sidereal Time
00:36:19
Azimuth
Unknown
Elevation
Unknown
Doppler factor
Unknown
Orbital elements
Apogee altitude
572.208 km
Perigee altitude
567.787 km
Semi-major axis
6,948.135 km
Eccentricity
0.00032
Inclination
69.9995°
RAAN
105.8608°
Arg. of periapsis
267.6698°
True anomaly
92.44613°
Mean anomaly
92.4097°
Eccentric anomaly
92.42792°
Mean motion
3.74749 °/min
Orbital period
96.06 mins
BSTAR
0.000054222
Loading maneuver chart data...
Computing Atmospheric mass density...
Loading historical data...
Loading historical data...
Loading historical data...
Loading historical data...
Loading historical data...
Loading historical data...
Loading historical data...

Documentation

Showing up to 5 results
|